Terminal Aerodrome Forecast
Issued by NWS

Home | Current Version | Previous Version | Text Only | Print | Product List | Glossary On
Versions: 1 2 3 4 5 6 7 8 9 10 11 12 13 14 15 16 17 18 19 20 21 22 23 24 25 26 27 28 29 30 31 32 33 34 35 36 37 38 39 40 41 42 43 44 45 46 47 48 49 50
000
FTUS43 KMKX 291448 AAB
TAFENW
TAF AMD
KENW 291448Z 2915/3012 07010KT P6SM OVC015
      TEMPO 2916/2918 SCT015 OVC025
     FM291800 06010KT P6SM VCSH OVC035 PROB30 3000/3006 4SM SHRA
      OVC040
     FM300800 07006KT 5SM BR BKN060=

USA.gov is the U.S. government's official web portal to all federal, state and local government web resources and services.